| time (UTC) | temp F | wind direction | speed knots | gust knots | rain 1hr in | rain 24hr in | rain mn in | humidity % | barometer mb |
| 20260506192716 | 61 | 181 | 0.0 | 0.0 | 0.01 | 0.04 | 0.04 | 69 | 1002.6 |
| 20260506191736 | 61 | 199 | 0.0 | 0.0 | 0.01 | 0.04 | 0.04 | 69 | 1002.7 |
| 20260506190837 | 61 | 196 | 0.0 | 0.0 | 0.01 | 0.04 | 0.04 | 69 | 1002.8 |
| 20260506185716 | 61 | 180 | 1.7 | 5.2 | 0.01 | 0.04 | 0.04 | 69 | 1002.9 |
| 20260506184736 | 61 | 211 | 0.0 | 0.0 | 0.01 | 0.04 | 0.04 | 69 | 1003.1 |
| 20260506183716 | 61 | 187 | 0.0 | 0.0 | 0.00 | 0.03 | 0.03 | 69 | 1003.1 |
| 20260506182716 | 61 | 180 | 0.0 | 3.5 | 0.00 | 0.03 | 0.03 | 69 | 1003.1 |
| 20260506181716 | 61 | 158 | 0.9 | 3.5 | 0.00 | 0.03 | 0.03 | 69 | 1003.3 |
| 20260506180716 | 61 | 192 | 0.0 | 0.0 | 0.00 | 0.03 | 0.03 | 69 | 1003.4 |
| 20260506175717 | 61 | 199 | 0.0 | 0.0 | 0.00 | 0.03 | 0.03 | 69 | 1003.4 |
| 20260506174716 | 61 | 163 | 0.0 | 0.0 | 0.00 | 0.03 | 0.03 | 68 | 1003.4 |
| 20260506173716 | 61 | 190 | 0.0 | 0.0 | 0.00 | 0.03 | 0.03 | 68 | 1003.5 |
| 20260506172716 | 61 | 180 | 0.0 | 5.2 | 0.00 | 0.03 | 0.03 | 67 | 1003.4 |
| 20260506171716 | 61 | 189 | 0.0 | 0.0 | 0.00 | 0.03 | 0.03 | 67 | 1003.4 |
| 20260506170716 | 60 | 191 | 0.0 | 0.0 | 0.00 | 0.03 | 0.03 | 67 | 1003.3 |
| 20260506165736 | 60 | 194 | 0.0 | 0.0 | 0.01 | 0.03 | 0.03 | 67 | 1003.5 |
| 20260506164716 | 61 | 192 | 0.0 | 0.0 | 0.01 | 0.03 | 0.03 | 66 | 1003.6 |
| 20260506163716 | 61 | 158 | 1.7 | 4.3 | 0.01 | 0.03 | 0.03 | 66 | 1003.5 |
| 20260506162716 | 61 | 180 | 0.9 | 3.5 | 0.01 | 0.03 | 0.03 | 66 | 1003.5 |
| 20260506161735 | 61 | 180 | 2.6 | 5.2 | 0.01 | 0.03 | 0.03 | 66 | 1003.6 |
| 20260506160716 | 61 | 180 | 0.0 | 3.5 | 0.01 | 0.03 | 0.03 | 66 | 1003.6 |
| 20260506155717 | 61 | 180 | 1.7 | 6.1 | 0.00 | 0.02 | 0.02 | 66 | 1003.7 |
| 20260506154736 | 61 | 199 | 0.0 | 0.0 | 0.00 | 0.02 | 0.02 | 66 | 1004.0 |
| 20260506153716 | 61 | 180 | 1.7 | 7.0 | 0.00 | 0.02 | 0.02 | 66 | 1004.6 |
| 20260506152716 | 62 | 203 | 3.5 | 5.2 | 0.01 | 0.02 | 0.02 | 65 | 1004.5 |
| 20260506151716 | 62 | 158 | 1.7 | 3.5 | 0.01 | 0.02 | 0.02 | 65 | 1004.3 |
| 20260506150716 | 62 | 155 | 0.0 | 0.0 | 0.01 | 0.02 | 0.02 | 65 | 1004.1 |
| 20260506145736 | 62 | 180 | 0.0 | 1.7 | 0.01 | 0.02 | 0.02 | 65 | 1004.3 |
| 20260506144716 | 62 | 180 | 1.7 | 5.2 | 0.01 | 0.02 | 0.02 | 65 | 1004.3 |
| 20260506143716 | 62 | 173 | 0.0 | 0.0 | 0.01 | 0.02 | 0.02 | 65 | 1004.5 |
| 20260506142716 | 62 | 203 | 1.7 | 4.3 | 0.01 | 0.01 | 0.01 | 64 | 1004.7 |
| 20260506141735 | 62 | 205 | 0.0 | 0.0 | 0.01 | 0.01 | 0.01 | 65 | 1004.7 |
| 20260506140716 | 62 | 203 | 0.9 | 3.5 | 0.01 | 0.01 | 0.01 | 65 | 1004.6 |
| 20260506135718 | 63 | 199 | 0.0 | 0.0 | 0.01 | 0.01 | 0.01 | 65 | 1004.6 |
| 20260506134717 | 63 | 196 | 0.0 | 0.0 | 0.01 | 0.01 | 0.01 | 65 | 1004.8 |
| 20260506133758 | 63 | 203 | 2.6 | 5.2 | 0.01 | 0.01 | 0.01 | 65 | 1004.7 |
| 20260506132718 | 63 | 180 | 0.0 | 0.0 | 0.00 | 0.00 | 0.00 | 65 | 1004.8 |
| 20260506131718 | 64 | 180 | 0.9 | 4.3 | 0.00 | 0.00 | 0.00 | 64 | 1005.0 |
| 20260506130738 | 64 | 180 | 2.6 | 6.1 | 0.00 | 0.00 | 0.00 | 62 | 1004.9 |
| 20260506125717 | 65 | 225 | 5.2 | 12.2 | 0.00 | 0.00 | 0.00 | 60 | 1004.9 |
| 20260506124737 | 65 | 225 | 4.3 | 7.0 | 0.00 | 0.00 | 0.00 | 59 | 1004.7 |
| 20260506123717 | 65 | 203 | 6.1 | 9.6 | 0.00 | 0.00 | 0.00 | 59 | 1004.7 |
| 20260506122718 | 65 | 205 | 0.0 | 0.0 | 0.00 | 0.00 | 0.00 | 59 | 1004.7 |
| 20260506121738 | 65 | 170 | 0.0 | 0.0 | 0.00 | 0.00 | 0.00 | 59 | 1004.6 |
| 20260506120719 | 65 | 192 | 0.0 | 0.0 | 0.00 | 0.00 | 0.00 | 59 | 1004.7 |
| 20260506115737 | 65 | 203 | 1.7 | 5.2 | 0.00 | 0.00 | 0.00 | 59 | 1004.8 |
| 20260506114717 | 65 | 186 | 0.0 | 0.0 | 0.00 | 0.00 | 0.00 | 59 | 1004.7 |
| 20260506113717 | 64 | 203 | 1.7 | 3.5 | 0.00 | 0.00 | 0.00 | 59 | 1004.8 |
| 20260506112717 | 64 | 158 | 3.5 | 9.6 | 0.00 | 0.00 | 0.00 | 59 | 1004.7 |
| 20260506111717 | 64 | 180 | 0.9 | 3.5 | 0.00 | 0.00 | 0.00 | 59 | 1004.7 |
| 20260506110717 | 64 | 169 | 0.0 | 0.0 | 0.00 | 0.00 | 0.00 | 60 | 1004.7 |
| 20260506105717 | 63 | 203 | 0.9 | 3.5 | 0.00 | 0.00 | 0.00 | 60 | 1004.4 |
| 20260506104758 | 63 | 180 | 0.0 | 3.5 | 0.00 | 0.00 | 0.00 | 60 | 1004.4 |
| 20260506103717 | 63 | 193 | 0.0 | 0.0 | 0.00 | 0.00 | 0.00 | 60 | 1004.4 |
| 20260506102717 | 62 | 193 | 0.0 | 0.0 | 0.00 | 0.00 | 0.00 | 60 | 1004.3 |
| 20260506101717 | 62 | 194 | 0.0 | 0.0 | 0.00 | 0.00 | 0.00 | 61 | 1004.4 |
| 20260506100717 | 61 | 225 | 0.9 | 1.7 | 0.00 | 0.01 | 0.00 | 61 | 1004.2 |
| 20260506095717 | 61 | 180 | 0.0 | 0.9 | 0.00 | 0.01 | 0.00 | 61 | 1004.6 |
| 20260506094717 | 61 | 181 | 0.0 | 0.0 | 0.00 | 0.01 | 0.00 | 60 | 1004.4 |
| 20260506093717 | 61 | 180 | 0.0 | 1.7 | 0.00 | 0.01 | 0.00 | 60 | 1004.2 |
| 20260506092717 | 61 | 213 | 0.0 | 0.0 | 0.00 | 0.01 | 0.00 | 60 | 1004.4 |
| 20260506091717 | 60 | 207 | 0.0 | 0.0 | 0.00 | 0.01 | 0.00 | 60 | 1004.4 |
| 20260506090758 | 60 | 207 | 0.0 | 0.0 | 0.00 | 0.01 | 0.00 | 60 | 1004.3 |
| 20260506085717 | 60 | 236 | 0.0 | 0.0 | 0.00 | 0.01 | 0.00 | 60 | 1004.5 |
| 20260506084717 | 59 | 270 | 0.9 | 2.6 | 0.00 | 0.01 | 0.00 | 61 | 1004.6 |
| 20260506083717 | 59 | 271 | 0.0 | 0.0 | 0.00 | 0.01 | 0.00 | 61 | 1004.6 |
| 20260506082737 | 59 | 271 | 0.0 | 0.0 | 0.00 | 0.01 | 0.00 | 61 | 1004.6 |
| 20260506081717 | 59 | 271 | 0.0 | 0.0 | 0.00 | 0.01 | 0.00 | 60 | 1004.7 |
| 20260506080717 | 59 | 271 | 0.0 | 0.0 | 0.00 | 0.01 | 0.00 | 59 | 1004.6 |
| 20260506072732 | 61 | 271 | 0.0 | 0.0 | 0.00 | 0.01 | 0.00 | 55 | 1004.8 |
| 20260506071717 | 62 | 271 | 0.0 | 0.0 | 0.00 | 0.01 | 0.00 | 54 | 1004.9 |
| 20260506070817 | 63 | 271 | 0.0 | 0.0 | 0.00 | 0.01 | 0.00 | 53 | 1004.9 |
| 20260506061717 | 65 | 271 | 0.0 | 0.0 | 0.00 | 0.01 | 0.00 | 47 | 1005.4 |
| 20260506060717 | 65 | 271 | 0.0 | 0.0 | 0.00 | 0.01 | 0.00 | 47 | 1005.5 |
| 20260506050716 | 66 | 206 | 0.0 | 0.0 | 0.00 | 0.01 | 0.00 | 45 | 1005.8 |
| 20260506044817 | 66 | 180 | 0.9 | 2.6 | 0.00 | 0.01 | 0.00 | 44 | 1005.8 |
| 20260506043736 | 66 | 227 | 0.0 | 0.0 | 0.00 | 0.01 | 0.00 | 44 | 1005.8 |
| 20260506042717 | 66 | 208 | 0.0 | 0.0 | 0.00 | 0.01 | 0.00 | 44 | 1005.8 |
| 20260506041757 | 67 | 248 | 0.0 | 2.6 | 0.00 | 0.01 | 0.00 | 43 | 1005.8 |
| 20260506040717 | 67 | 193 | 0.0 | 0.0 | 0.00 | 0.01 | 0.00 | 42 | 1005.7 |
| 20260506035717 | 67 | 191 | 0.0 | 0.0 | 0.00 | 0.01 | 0.01 | 41 | 1005.7 |
| 20260506034717 | 68 | 203 | 0.0 | 2.6 | 0.00 | 0.01 | 0.01 | 41 | 1005.7 |
| 20260506033717 | 69 | 203 | 0.9 | 2.6 | 0.00 | 0.01 | 0.01 | 39 | 1005.8 |
| 20260506032717 | 69 | 248 | 0.0 | 1.7 | 0.00 | 0.01 | 0.01 | 38 | 1005.7 |
| 20260506031717 | 70 | 203 | 0.0 | 2.6 | 0.00 | 0.01 | 0.01 | 37 | 1005.6 |
| 20260506030717 | 70 | 171 | 0.0 | 0.0 | 0.00 | 0.01 | 0.01 | 37 | 1005.5 |
| 20260506025717 | 70 | 192 | 0.0 | 0.0 | 0.00 | 0.01 | 0.01 | 37 | 1005.5 |
| 20260506024717 | 70 | 248 | 0.0 | 1.7 | 0.00 | 0.01 | 0.01 | 36 | 1005.4 |
| 20260506023717 | 71 | 178 | 0.0 | 0.0 | 0.00 | 0.01 | 0.01 | 35 | 1005.5 |
| 20260506022722 | 71 | 175 | 0.0 | 0.0 | 0.00 | 0.01 | 0.01 | 34 | 1005.6 |
| 20260506021737 | 71 | 203 | 2.6 | 6.1 | 0.00 | 0.01 | 0.01 | 34 | 1005.4 |
| 20260506020737 | 72 | 180 | 1.7 | 4.3 | 0.00 | 0.01 | 0.01 | 33 | 1005.4 |
| 20260506015717 | 72 | 180 | 0.9 | 3.5 | 0.00 | 0.01 | 0.01 | 32 | 1005.3 |
| 20260506014717 | 72 | 158 | 1.7 | 6.1 | 0.00 | 0.01 | 0.01 | 32 | 1005.3 |
| 20260506013737 | 72 | 176 | 0.0 | 0.0 | 0.00 | 0.01 | 0.01 | 32 | 1005.1 |
| 20260506012717 | 72 | 180 | 0.0 | 2.6 | 0.00 | 0.01 | 0.01 | 33 | 1005.1 |
| 20260506011717 | 72 | 193 | 0.0 | 0.0 | 0.00 | 0.01 | 0.01 | 32 | 1004.9 |
| 20260506010717 | 73 | 169 | 0.0 | 0.0 | 0.00 | 0.01 | 0.01 | 32 | 1004.8 |
| 20260506005717 | 73 | 203 | 0.0 | 1.7 | 0.00 | 0.01 | 0.01 | 32 | 1004.7 |
| 20260506004717 | 73 | 194 | 0.0 | 0.0 | 0.00 | 0.01 | 0.01 | 31 | 1004.5 |
| 20260506003717 | 74 | 180 | 0.0 | 1.7 | 0.00 | 0.01 | 0.01 | 30 | 1004.4 |
| 20260506002717 | 75 | 225 | 0.0 | 0.9 | 0.00 | 0.01 | 0.01 | 30 | 1004.3 |
| 20260506001717 | 75 | 203 | 1.7 | 4.3 | 0.00 | 0.01 | 0.01 | 30 | 1004.3 |
| 20260506000717 | 76 | 171 | 0.0 | 0.0 | 0.00 | 0.01 | 0.01 | 29 | 1004.2 |
| 20260505235717 | 76 | 203 | 5.2 | 8.7 | 0.00 | 0.01 | 0.01 | 28 | 1004.1 |
| 20260505234716 | 76 | 203 | 1.7 | 4.3 | 0.00 | 0.01 | 0.01 | 28 | 1004.0 |
| 20260505233737 | 76 | 180 | 0.9 | 3.5 | 0.00 | 0.01 | 0.01 | 28 | 1004.0 |
| 20260505232737 | 77 | 180 | 0.9 | 4.3 | 0.00 | 0.01 | 0.01 | 28 | 1003.8 |
| 20260505231742 | 77 | 203 | 6.1 | 14.8 | 0.00 | 0.01 | 0.01 | 27 | 1004.0 |
| 20260505230757 | 77 | 180 | 1.7 | 4.3 | 0.00 | 0.01 | 0.01 | 26 | 1003.8 |
| 20260505225717 | 77 | 203 | 3.5 | 7.0 | 0.00 | 0.01 | 0.01 | 26 | 1003.7 |
| 20260505224716 | 77 | 203 | 1.7 | 5.2 | 0.00 | 0.01 | 0.01 | 26 | 1003.4 |
| 20260505223717 | 78 | 225 | 0.9 | 2.6 | 0.00 | 0.01 | 0.01 | 25 | 1003.5 |
| 20260505222717 | 78 | 180 | 0.0 | 1.7 | 0.00 | 0.01 | 0.01 | 26 | 1003.5 |
| 20260505221717 | 78 | 203 | 1.7 | 5.2 | 0.00 | 0.01 | 0.01 | 25 | 1003.5 |
| 20260505220716 | 79 | 203 | 3.5 | 6.1 | 0.00 | 0.01 | 0.01 | 24 | 1003.4 |
| 20260505215717 | 79 | 203 | 8.7 | 16.5 | 0.00 | 0.01 | 0.01 | 24 | 1003.3 |
| 20260505214737 | 79 | 248 | 1.7 | 3.5 | 0.00 | 0.01 | 0.01 | 25 | 1003.3 |
| 20260505213717 | 79 | 203 | 6.1 | 13.0 | 0.00 | 0.01 | 0.01 | 24 | 1003.3 |
| 20260505212721 | 80 | 203 | 4.3 | 13.0 | 0.00 | 0.01 | 0.01 | 25 | 1003.2 |
| 20260505211717 | 80 | 203 | 5.2 | 10.4 | 0.00 | 0.01 | 0.01 | 24 | 1003.1 |
| 20260505210717 | 81 | 203 | 6.1 | 13.0 | 0.00 | 0.01 | 0.01 | 24 | 1003.1 |
| 20260505205717 | 82 | 203 | 2.6 | 5.2 | 0.00 | 0.01 | 0.01 | 24 | 1003.0 |
| 20260505204717 | 83 | 180 | 6.1 | 11.3 | 0.00 | 0.01 | 0.01 | 23 | 1003.1 |
| 20260505203757 | 83 | 203 | 6.1 | 12.2 | 0.00 | 0.01 | 0.01 | 24 | 1003.0 |
| 20260505202716 | 83 | 225 | 3.5 | 7.0 | 0.00 | 0.01 | 0.01 | 22 | 1003.1 |
| 20260505201716 | 83 | 225 | 7.0 | 13.9 | 0.00 | 0.01 | 0.01 | 20 | 1003.1 |
| 20260505200717 | 83 | 203 | 10.4 | 19.1 | 0.00 | 0.01 | 0.01 | 17 | 1003.2 |
| 20260505195716 | 83 | 225 | 5.2 | 8.7 | 0.00 | 0.01 | 0.01 | 17 | 1003.3 |
| 20260505194756 | 83 | 203 | 5.2 | 9.6 | 0.00 | 0.01 | 0.01 | 17 | 1003.5 |
| 20260505193716 | 83 | 203 | 7.0 | 13.0 | 0.00 | 0.01 | 0.01 | 18 | 1003.6 |